Kuchera_Ratio
0.0 0.0 0.0 0.0 0.0 0.0 0.0 0.0 0.0 0.0 0.0 0.0 0.0 0.0 0.0 0.0 0.0 0.0 0.0 0.0 0.0 0.0 0.0 0.0 0.0 0.0 0.0 0.0 0.0 0.0 0.0 0.0 0.0 0.0 0.0 0.0 0.0 0.0 0.0 0.0 0.0 0.0 0.0 0.0 0.0 0.0 0.0
0.0 0.0 0.0 0.0 0.0 0.0 0.0 0.0 0.0 0.0 0.0 0.0 0.0 0.0 0.0 0.0 0.0 0.0 0.0 0.0 0.0 0.0 0.0 0.0 0.0 0.0 0.0 0.0 0.0 0.0 0.0 0.0 0.0 0.0 0.0 0.0 0.0 0.0 0.0 0.0 0.0 0.0 0.0 0.0 0.0 0.0 0.0
0.0 0.0 0.0 0.0 0.0 0.0 0.0 0.0 0.0 0.0 0.0 0.0 0.0 0.0 0.0 0.0 0.0 0.0 0.0 0.0 0.0 0.0 0.0 0.0 0.0 0.0 0.0 0.0 0.0 0.0 0.0 0.0 0.0 0.0 0.0 0.0 0.0 0.0 0.0 0.0 0.0 0.0 0.0 0.0 0.0 0.0 0.0
0.0 0.0 0.0 0.0 0.0 0.0 0.0 0.0 0.0 0.0 0.0 0.0 0.0 0.0 0.0 0.0 0.0 0.0 0.0 0.0 0.0 0.0 0.0 0.0 0.0 0.0 0.0 0.0 0.0 0.0 0.0 0.0 0.0 0.0 0.0 0.0 0.0 0.0 0.0 0.0 0.0 0.0 0.0 0.0 0.0 0.0 0.0
0.0 0.0 0.0 0.0 0.0 0.0 0.0 0.0 0.0 0.0 0.0 0.0 0.0 0.0 0.0 0.0 0.0 0.0 0.0 0.0 0.0 0.0 0.0 0.0 0.0 0.0 0.0 0.0 0.0 0.0 0.0 0.0 0.0 0.0 0.0 0.0 0.0 0.0 0.0 0.0 0.0 0.0 0.0 0.0 0.0 0.0 0.0
0.0 0.0 0.0 0.0 0.0 0.0 0.0 0.0 0.0 0.0 0.0 0.0 0.0 0.0 0.0 0.0 0.0 0.0 0.0 0.0 0.0 0.0 0.0 0.0 0.0 0.0 0.0 0.0 0.0 0.0 0.0 0.0 0.0 0.0 0.0 0.0 0.0 0.0 0.0 0.0 0.0 0.0 0.0 0.0 0.0 0.0 0.0
0.0 0.0 0.0 0.0 0.0 0.0 0.0 0.0 0.0 0.0 0.0 0.0 0.0 0.0 0.0 0.0 0.0 0.0 0.0 0.0 0.0 0.0 0.0 0.0 0.0 0.0 0.0 0.0 0.0 0.0 0.0 0.0 0.0 0.0 0.0 0.0 0.0 0.0 0.0 0.0 0.0 0.0 0.0 0.0 0.0 0.0 0.0
0.0 0.0 0.0 0.0 0.0 0.0 0.0 0.0 0.0 0.0 0.0 0.0 0.0 0.0 0.0 0.0 0.0 0.0 0.0 0.0 0.0 0.0 0.0 0.0 0.0 0.0 0.0 0.0 0.0 0.0 0.0 0.0 0.0 0.0 0.0 0.0 0.0 0.0 0.0 0.0 0.0 0.0 0.0 0.0 0.0 0.0 0.0
0.0 0.0 0.0 0.0 0.0 0.0 0.0 0.0 0.0 0.0 0.0 0.0 0.0 0.0 0.0 0.0 0.0 0.0 0.0 0.0 0.0 0.0 0.5 0.0 0.0 0.0 0.0 0.0 0.0 0.0 0.0 0.0 0.0 0.0 0.0 0.0 0.0 0.0 0.0 0.0 0.0 0.0 0.0 0.0 0.0 0.0 0.0
0.0 0.0 0.0 0.0 0.0 0.0 0.0 0.0 0.0 0.0 0.0 0.0 0.0 0.0 0.0 0.0 0.0 0.0 0.0 0.0 0.0 0.0 4.8 0.0 0.0 0.0 0.0 0.0 0.0 0.0 0.0 0.0 0.0 0.0 0.0 0.0 0.0 0.0 0.0 0.0 0.0 0.0 0.0 0.0 0.0 0.0 0.0
0.0 0.0 0.0 0.0 0.0 0.0 0.0 0.0 0.0 0.0 0.0 0.0 0.0 0.0 0.0 0.0 0.0 0.0 0.0 0.0 0.0 0.0 11.4 0.0 0.0 0.0 0.0 0.0 0.0 0.0 0.0 0.0 0.0 0.0 0.0 0.0 0.0 0.0 0.0 0.0 0.0 0.0 0.0 0.0 0.0 0.0 0.0
0.0 0.0 0.0 0.0 0.0 0.0 0.0 0.0 0.0 0.0 0.0 0.0 0.0 0.0 0.0 0.0 0.0 0.0 0.0 0.0 0.0 8.1 12.7 0.0 0.0 0.0 0.0 0.0 0.0 0.0 0.0 0.0 0.0 0.0 0.0 0.0 0.0 0.0 0.0 0.0 0.0 0.0 0.0 0.0 0.0 0.0 0.4
0.0 0.0 0.0 0.0 0.0 0.0 0.0 0.0 0.0 0.0 0.0 0.0 0.0 0.0 0.0 0.0 0.0 0.0 0.0 0.0 6.7 13.1 0.0 0.0 0.0 0.0 0.0 0.0 0.0 0.0 0.0 0.0 0.0 0.0 0.0 0.0 0.0 0.0 0.0 0.0 0.0 0.0 0.0 2.3 8.5 8.5 8.0
0.0 0.0 0.0 0.0 0.0 0.0 0.0 0.0 0.0 0.0 0.0 0.0 0.0 0.0 0.0 0.0 0.0 0.0 0.0 0.0 13.8 2.3 2.9 0.0 0.0 0.0 0.0 0.0 0.0 0.0 0.0 3.3 0.0 0.0 0.0 3.3 3.9 0.0 0.0 0.0 0.0 0.0 0.0 0.7 9.1 8.5 8.7
0.0 0.0 0.0 0.0 0.0 0.0 0.0 0.0 0.0 0.0 0.0 0.0 0.0 0.0 0.0 0.0 0.0 0.0 0.0 11.2 12.2 3.7 0.0 0.0 0.0 1.3 3.3 0.0 0.0 0.0 3.9 6.5 0.0 0.0 7.5 7.9 2.7 0.0 0.0 0.0 0.0 0.0 0.0 0.0 0.0 1.8 2.2
0.0 0.0 0.0 0.0 0.0 0.0 0.0 0.0 0.0 0.0 0.0 0.0 2.1 3.2 0.0 0.0 0.0 0.0 2.9 6.9 3.1 0.0 0.0 0.0 6.5 1.5 9.9 6.1 3.5 1.5 5.3 3.3 4.9 0.0 0.0 3.7 8.8 0.0 0.0 0.0 0.0 0.0 0.0 0.8 1.1 10.3 11.4
0.0 0.0 0.0 0.0 0.0 0.0 0.0 0.0 0.0 0.0 0.0 0.0 4.4 5.2 0.0 0.0 0.0 0.0 13.7 7.5 0.0 0.0 0.0 1.5 5.3 5.9 5.9 7.9 4.9 5.1 8.3 4.3 3.3 1.9 0.0 3.7 5.9 1.0 0.0 0.0 0.5 0.0 0.0 0.0 0.0 2.0 9.3
0.0 0.0 0.0 0.0 0.0 0.0 0.0 0.0 0.0 0.0 0.0 0.0 7.7 11.5 0.0 0.0 8.7 11.9 12.8 5.1 0.0 0.0 0.0 0.0 0.0 2.3 6.1 6.5 6.7 7.3 12.4 7.5 0.7 1.1 10.1 3.1 7.9 11.7 3.9 0.0 0.0 0.0 1.5 0.9 3.9 5.7 4.1
0.0 0.0 0.0 0.0 0.0 0.0 0.0 0.0 0.0 0.0 0.0 3.5 11.1 12.0 0.0 0.0 17.0 15.4 9.9 3.1 0.0 1.5 2.1 2.7 5.5 2.9 2.3 8.7 11.5 7.9 7.5 2.1 1.3 4.3 9.7 5.9 10.1 14.1 9.3 2.5 0.0 4.1 0.6 0.0 1.1 3.4 7.3
0.0 0.0 0.0 0.0 0.0 0.0 0.0 0.0 0.0 0.0 0.0 2.7 11.2 15.7 12.0 10.3 13.0 13.7 13.6 11.5 9.3 0.0 1.7 0.5 4.1 2.5 5.7 9.7 5.9 11.9 10.9 4.5 2.5 3.5 0.0 2.9 9.9 12.3 14.8 12.7 7.5 9.5 5.1 1.7 3.5 12.2 10.5
0.0 0.0 0.0 0.0 0.0 0.0 0.0 0.0 0.0 0.0 0.0 1.4 11.3 14.6 12.1 16.6 15.7 13.0 10.7 10.5 12.4 12.6 3.5 2.7 7.3 8.3 10.5 13.2 11.9 12.8 9.5 8.1 4.3 1.7 6.6 10.1 14.5 12.6 11.7 8.5 7.1 7.9 7.5 5.5 6.7 3.7 10.1
0.0 0.0 0.0 0.0 0.0 0.0 0.0 0.0 0.0 0.0 0.0 5.3 14.2 14.4 12.3 14.0 12.3 13.2 12.5 13.1 13.2 11.9 8.9 11.5 11.7 9.5 9.7 13.5 12.9 14.5 12.1 10.7 11.9 8.1 11.3 10.3 15.5 13.4 14.1 10.1 8.9 12.1 8.1 7.1 6.1 4.7 4.7
0.0 0.0 0.0 0.0 0.0 0.0 0.0 0.0 0.0 0.0 0.0 7.1 7.9 8.3 10.9 13.3 13.5 14.9 14.7 12.9 12.5 10.1 6.7 5.3 9.7 11.7 12.2 10.9 7.9 7.4 7.5 7.6 7.5 11.7 12.8 13.3 14.4 15.2 17.3 12.8 12.5 17.0 11.3 7.1 6.9 2.4 3.2
0.0 0.0 0.0 0.0 0.0 0.0 0.0 0.0 0.0 0.0 0.0 1.9 3.9 8.5 13.4 17.5 13.6 13.6 12.3 11.7 12.3 11.3 12.7 9.1 8.5 11.1 6.7 1.3 2.6 6.9 7.4 8.7 9.8 10.3 10.1 13.3 14.2 14.4 17.7 15.2 23.4 12.6 3.9 4.3 7.3 8.1 7.3
0.0 0.0 0.0 0.0 0.0 0.0 0.0 0.0 0.0 0.0 0.0 4.0 3.9 7.1 12.9 18.4 12.9 13.0 11.9 12.3 11.3 10.7 12.2 11.1 7.7 2.2 2.8 8.7 13.7 15.6 15.8 14.1 12.1 10.3 11.1 11.3 13.2 17.9 22.4 18.6 14.9 12.8 11.7 12.6 12.3 12.9 5.9
0.0 0.0 0.0 0.0 0.0 0.0 0.0 0.0 0.0 0.0 0.0 3.2 4.3 3.7 7.7 14.9 16.9 9.7 13.6 12.7 15.2 15.2 13.9 10.7 4.4 1.7 3.2 12.1 16.0 22.6 23.8 16.9 16.9 14.2 6.1 11.3 10.9 15.5 18.1 21.9 25.0 15.1 9.1 2.7 5.9 15.1 6.3
0.0 0.0 0.0 0.0 0.0 0.0 0.0 0.0 0.0 0.0 0.0 0.0 1.7 0.3 6.5 13.2 11.9 10.8 15.0 14.9 11.9 13.3 14.6 13.2 11.7 11.3 5.1 15.6 20.1 20.7 19.3 14.2 19.0 17.9 16.1 15.1 14.8 19.3 18.0 19.3 15.8 11.3 6.5 3.1 15.3 15.7 8.7
0.0 0.0 0.0 0.0 0.0 0.0 0.0 0.0 0.0 0.0 0.0 0.0 3.7 0.5 4.9 10.9 9.9 7.0 6.4 12.3 12.3 11.7 15.7 13.1 14.0 13.9 15.0 18.3 19.8 20.2 19.3 16.1 16.5 14.3 15.4 16.6 20.4 20.4 18.2 21.9 22.0 6.1 7.1 14.7 10.5 6.7 5.3
0.0 0.0 0.0 0.0 0.0 0.0 0.0 0.0 0.0 0.0 0.0 0.0 3.9 0.8 0.0 7.9 8.9 4.1 2.7 1.7 3.0 4.7 11.7 12.5 13.8 13.0 12.5 16.4 16.6 18.1 19.1 18.1 16.3 20.3 13.0 19.0 16.1 19.0 18.6 16.4 8.1 5.1 8.1 5.7 5.5 6.7 3.9